Roswell, NM

5:09 AM MDT on August 25, 2016 (GMT -0600)
Roswell Industrial

Weather History for KROW - October, 2012

Change the Weather History Date:

Saturday, October 27, 2012

  Actual Average Record
Temperature  
Mean Temperature 44 °F 57 °F  
Max Temperature 60 °F 72 °F 88 °F (1926)
Min Temperature 28 °F 42 °F 23 °F (1913)
Degree Days  
Heating Degree Days 21 8  
Month to date heating degree days 86 122  
Since 1 July heating degree days 95 138  
Cooling Degree Days 0 0  
Month to date cooling degree days 57 35  
Year to date cooling degree days 2356 1786  
Moisture  
Dew Point 20 °F    
Average Humidity 41    
Maximum Humidity 59    
Minimum Humidity 22    
Precipitation  
Precipitation 0.00 in 0.03 in 1.48 in (1998)
Month to date precipitation 0.53 1.10  
Year to date precipitation 6.05 11.56  
Sea Level Pressure  
Sea Level Pressure 30.15 in    
Wind  
Wind Speed 8 mph (South)    
Max Wind Speed 17 mph    
Max Gust Speed 23 mph    
Visibility 10 miles    
Events      
T = Trace of Precipitation, MM = Missing Value Source: NWS Daily Summary

Daily Weather History Graph

Daily Weather History Graph

Search for Another Location

Airport or City:

Trip Planner

Search our weather history database for the weather conditions in past years. The results will help you decide how hot, cold, wet, or windy it might be!

Date:

Astronomy

Oct. 27, 2012 Rise Set
Actual Time 7:12 AM MDT 6:10 PM MDT
Civil Twilight 6:47 AM MDT 6:36 PM MDT
Nautical Twilight 6:18 AM MDT 7:05 PM MDT
Astronomical Twilight 5:49 AM MDT 7:34 PM MDT
Moon 4:55 PM MDT (10/27) 5:14 AM MDT (10/27)
Length of Visible Light 11h 48m
Length of Day
10h 57m
Waxing Gibbous, 96% of the Moon is Illuminated
Oct 27
Waxing Gibbous
Oct 29
Full
Nov 6
Last Quarter
Nov 13
New
Nov 20
First Quarter

Hourly Weather History & Observations

Time (MDT) Temp. Windchill Dew Point Humidity Pressure Visibility Wind Dir Wind Speed Gust Speed Precip Events Conditions
12:51 AM 37.9 °F 35.5 °F 21.0 °F 51% 30.29 in 10.0 mi SW 3.5 mph - N/A   Clear
1:51 AM 36.0 °F 31.1 °F 21.0 °F 55% 30.28 in 10.0 mi SSW 5.8 mph - N/A   Clear
2:51 AM 35.1 °F 29.3 °F 19.0 °F 52% 30.26 in 10.0 mi SW 6.9 mph - N/A   Clear
3:51 AM 33.1 °F 26.9 °F 19.0 °F 56% 30.25 in 10.0 mi SW 6.9 mph - N/A   Clear
4:51 AM 32.0 °F 26.4 °F 18.0 °F 56% 30.24 in 10.0 mi South 5.8 mph - N/A   Clear
5:51 AM 33.1 °F 28.7 °F 18.0 °F 54% 30.24 in 10.0 mi South 4.6 mph - N/A   Clear
6:51 AM 30.0 °F 25.2 °F 18.0 °F 61% 30.25 in 10.0 mi South 4.6 mph - N/A   Clear
8:51 AM 39.9 °F 35.8 °F 18.0 °F 41% 30.26 in 10.0 mi South 5.8 mph - N/A   Clear
9:51 AM 45.0 °F 38.5 °F 18.0 °F 34% 30.23 in 10.0 mi South 13.8 mph - N/A   Clear
10:51 AM 48.0 °F - 19.9 °F 33% 30.22 in 10.0 mi South 15.0 mph - N/A   Clear
11:51 AM 51.1 °F - 19.9 °F 29% 30.18 in 10.0 mi South 13.8 mph - N/A   Clear
12:51 PM 54.0 °F - 21.9 °F 29% 30.12 in 10.0 mi SSE 12.7 mph 23.0 mph N/A   Clear
1:51 PM 57.0 °F - 23.0 °F 27% 30.06 in 10.0 mi South 10.4 mph 21.9 mph N/A   Clear
2:51 PM 59.0 °F - 23.0 °F 25% 30.04 in 10.0 mi South 12.7 mph 21.9 mph N/A   Clear
3:51 PM 60.1 °F - 21.9 °F 23% 30.02 in 10.0 mi South 12.7 mph - N/A   Clear
4:51 PM 59.0 °F - 21.9 °F 24% 30.02 in 10.0 mi SSE 13.8 mph - N/A   Clear
5:51 PM 57.0 °F - 21.0 °F 25% 30.02 in 10.0 mi SSE 11.5 mph - N/A   Clear
6:51 PM 51.1 °F - 19.0 °F 28% 30.06 in 10.0 mi SSE 6.9 mph - N/A   Clear
7:51 PM 46.9 °F - 19.0 °F 33% 30.09 in 10.0 mi South 4.6 mph - N/A   Clear
8:51 PM 44.1 °F 39.5 °F 19.0 °F 37% 30.09 in 10.0 mi SW 8.1 mph - N/A   Clear
9:51 PM 43.0 °F 39.5 °F 18.0 °F 37% 30.10 in 10.0 mi SW 5.8 mph - N/A   Clear
10:51 PM 39.0 °F 34.0 °F 18.0 °F 43% 30.11 in 10.0 mi South 6.9 mph - N/A   Clear